Tracking 19920 objects as of 14-Oct-2019
HD Live streaming from Space Station
objects crossing your sky now

SL-8 DEB

Track SL-8 DEB now!
10-day predictions


NORAD ID: 21959
Int'l Code: 1991-009CH
Perigee: 1,500.5 km
Apogee: 1,710.9 km
Inclination: 74.0 °
Period: 118.2 minutes
Semi major axis: 7976 km
RCS: 0.0331 m2 (small)
Launch date: February 12, 1991
Source: Commonwealth of Independent States (former USSR) (CIS)
Launch site: PLESETSK MISSILE AND SPACE COMPLEX (PKMTR)

Note: This is SATELLITE DEBRIS
aabbcc
Your satellite tracking list
Your tracking list is empty




NASA's NSSDC Master Catalog

Two Line Element Set (TLE):
1 21959U 91009CH  19286.25541237  .00000118  00000-0  12753-2 0  9990
2 21959  73.9718 359.7794 0131856 293.5864 123.7980 12.18619087271663
Source of the keplerian elements: AFSPC